FW8343 Weather Reports


Display with metric or nautical units.
time (UTC)temp
F
wind
direction
speed
MPH
gust
MPH
rain 1hr
in
rain 24hr
in
rain mn
in
humidity
%
barometer
mb
20260901234021 78 0 0.0 7.0 0.00 0.00 0.00 51 1014.3
20260901233520 78 0 1.0 7.0 0.00 0.00 0.00 49 1014.1
20260901233052 78 228 2.0 7.0 0.00 0.00 0.00 50 1014.2
20260901232516 78 0 1.0 4.0 0.00 0.00 0.00 49 1014.2
20260901232021 79 0 1.0 5.0 0.00 0.00 0.00 47 1014.1
20260901231538 79 0 1.0 5.0 0.00 0.00 0.00 50 1014.1
20260901231020 79 250 1.0 5.0 0.00 0.00 0.00 51 1014.0
20260901230525 79 0 1.0 5.0 0.00 0.00 0.00 49 1014.1
20260901230038 79 0 1.0 6.0 0.00 0.00 0.00 48 1014.1
20260901225521 79 257 1.0 7.0 0.00 0.00 0.00 47 1014.0
20260901225020 79 218 1.0 7.0 0.00 0.00 0.00 47 1014.0
20260901224536 79 229 1.0 7.0 0.00 0.00 0.00 47 1014.0
20260901224016 79 0 1.0 10.0 0.00 0.00 0.00 46 1014.0
20260901223516 80 224 2.0 10.0 0.00 0.00 0.00 45 1013.9
20260901223036 80 232 2.0 10.0 0.00 0.00 0.00 45 1014.1
20260901222526 80 311 2.0 7.0 0.00 0.00 0.00 46 1014.1
20260901222022 81 244 1.0 3.0 0.00 0.00 0.00 48 1014.1
20260901221536 81 229 1.0 4.0 0.00 0.00 0.00 46 1014.0
20260901221024 80 275 1.0 6.0 0.00 0.00 0.00 47 1014.1
20260901220519 80 242 2.0 6.0 0.00 0.00 0.00 46 1014.0
20260901220036 80 193 1.0 7.0 0.00 0.00 0.00 48 1014.0
20260901215521 80 257 1.0 7.0 0.00 0.00 0.00 46 1014.1
20260901215020 80 264 1.0 7.0 0.00 0.00 0.00 46 1014.1
20260901214539 80 197 2.0 8.0 0.00 0.00 0.00 46 1014.1
20260901214016 80 229 2.0 8.0 0.00 0.00 0.00 46 1014.1
20260901213518 80 244 1.0 9.0 0.00 0.00 0.00 48 1014.1
20260901213040 80 263 3.0 9.0 0.00 0.00 0.00 50 1014.2
20260901212519 80 224 4.0 7.0 0.00 0.00 0.00 50 1014.2
20260901212021 80 227 1.0 9.0 0.00 0.00 0.00 50 1014.1
20260901211535 80 229 1.0 12.0 0.00 0.00 0.00 51 1014.1
20260901211022 80 224 5.0 12.0 0.00 0.00 0.00 51 1014.1
20260901210520 80 234 2.0 9.0 0.00 0.00 0.00 51 1014.1
20260901210035 80 223 3.0 11.0 0.00 0.00 0.00 51 1014.1
20260901205519 80 227 3.0 11.0 0.00 0.00 0.00 51 1014.0
20260901205021 80 209 4.0 11.0 0.00 0.00 0.00 52 1013.9
20260901204535 80 231 5.0 11.0 0.00 0.00 0.00 51 1014.0
20260901204021 80 226 3.0 10.0 0.00 0.00 0.00 50 1014.0
20260901203520 81 239 2.0 8.0 0.00 0.00 0.00 51 1013.9
20260901203056 81 226 1.0 8.0 0.00 0.00 0.00 48 1013.8
20260901202518 81 217 3.0 6.0 0.00 0.00 0.00 48 1013.9
20260901202019 82 262 1.0 5.0 0.00 0.00 0.00 46 1013.9
20260901201535 82 273 1.0 8.0 0.00 0.00 0.00 46 1014.0
20260901201021 82 229 2.0 8.0 0.00 0.00 0.00 46 1014.1
20260901200519 82 275 2.0 8.0 0.00 0.00 0.00 43 1014.1
20260901200041 82 259 2.0 13.0 0.00 0.00 0.00 46 1013.9
20260901195520 82 268 2.0 13.0 0.00 0.00 0.00 43 1014.1
20260901195022 83 225 3.0 9.0 0.00 0.00 0.00 42 1014.1
20260901194541 83 263 1.0 9.0 0.00 0.00 0.00 43 1014.2
20260901194021 83 232 2.0 14.0 0.00 0.00 0.00 43 1014.2
20260901193519 83 227 4.0 14.0 0.00 0.00 0.00 42 1014.3
20260901193040 84 225 1.0 4.0 0.00 0.00 0.00 43 1014.2
20260901192519 84 305 0.0 8.0 0.00 0.00 0.00 41 1014.3
20260901192018 84 305 0.0 8.0 0.00 0.00 0.00 41 1014.2
20260901191534 84 226 2.0 8.0 0.00 0.00 0.00 40 1014.3
20260901191021 84 306 1.0 9.0 0.00 0.00 0.00 40 1014.3
20260901190521 84 282 0.0 9.0 0.00 0.00 0.00 43 1014.4
20260901190037 84 228 4.0 9.0 0.00 0.00 0.00 44 1014.4
20260901185520 84 321 1.0 7.0 0.00 0.00 0.00 42 1014.4
20260901185021 84 250 1.0 7.0 0.00 0.00 0.00 40 1014.4
20260901184534 84 288 2.0 7.0 0.00 0.00 0.00 41 1014.4
20260901184019 84 267 1.0 9.0 0.00 0.00 0.00 42 1014.5
20260901183518 84 235 3.0 9.0 0.00 0.00 0.00 41 1014.7
20260901183039 84 266 2.0 12.0 0.00 0.00 0.00 38 1014.7
20260901182521 84 257 2.0 12.0 0.00 0.00 0.00 40 1014.8
20260901182020 85 240 1.0 7.0 0.00 0.00 0.00 42 1014.7
20260901181533 84 254 2.0 6.0 0.00 0.00 0.00 42 1014.8
20260901181022 84 300 1.0 7.0 0.00 0.00 0.00 41 1014.8
20260901180520 83 264 1.0 7.0 0.00 0.00 0.00 42 1014.9
20260901180033 83 210 2.0 7.0 0.00 0.00 0.00 45 1014.8
20260901175525 83 225 3.0 9.0 0.00 0.00 0.00 43 1014.9
20260901175021 82 271 2.0 10.0 0.00 0.00 0.00 43 1015.0
20260901174534 82 0 3.0 10.0 0.00 0.00 0.00 45 1014.9
20260901174020 83 227 2.0 10.0 0.00 0.00 0.00 43 1015.0
20260901173524 83 227 3.0 8.0 0.00 0.00 0.00 44 1015.2
20260901173044 83 229 2.0 4.0 0.00 0.00 0.00 45 1015.2
20260901172519 84 227 0.0 4.0 0.00 0.00 0.00 46 1015.2
20260901172017 84 229 0.0 4.0 0.00 0.00 0.00 46 1015.2
20260901171537 83 229 1.0 4.0 0.00 0.00 0.00 48 1015.3
20260901171019 83 284 1.0 4.0 0.00 0.00 0.00 48 1015.3
20260901170523 82 263 0.0 5.0 0.00 0.00 0.00 47 1015.4
20260901170036 81 0 1.0 8.0 0.00 0.00 0.00 50 1015.4
20260901165520 80 230 1.0 9.0 0.00 0.00 0.00 49 1015.5
20260901165021 80 246 3.0 9.0 0.00 0.00 0.00 53 1015.5
20260901164537 81 232 1.0 7.0 0.00 0.00 0.00 52 1015.5
20260901164020 81 232 2.0 7.0 0.00 0.00 0.00 52 1015.6
20260901163523 82 0 0.0 3.0 0.00 0.00 0.00 50 1015.7
20260901163039 81 0 0.0 4.0 0.00 0.00 0.00 52 1015.8
20260901162519 80 0 0.0 5.0 0.00 0.00 0.00 53 1015.8
20260901162018 80 0 1.0 5.0 0.00 0.00 0.00 53 1015.8
20260901161547 80 0 0.0 4.0 0.00 0.00 0.00 52 1015.8
20260901161022 80 0 0.0 4.0 0.00 0.00 0.00 55 1015.8
20260901160520 79 229 0.0 5.0 0.00 0.00 0.00 56 1015.8
20260901160037 79 0 0.0 5.0 0.00 0.00 0.00 59 1015.7
20260901155520 79 229 2.0 4.0 0.00 0.00 0.00 55 1015.9
20260901155021 79 0 1.0 4.0 0.00 0.00 0.00 56 1015.9
20260901154537 79 0 1.0 4.0 0.00 0.00 0.00 58 1016.0
20260901154023 80 229 0.0 2.0 0.00 0.00 0.00 60 1016.1
20260901153520 79 0 0.0 3.0 0.00 0.00 0.00 65 1016.0
20260901153044 77 0 0.0 3.0 0.00 0.00 0.00 62 1016.1
20260901152516 77 229 2.0 3.0 0.00 0.00 0.00 61 1016.1
20260901152016 77 229 0.0 2.0 0.00 0.00 0.00 65 1016.1
20260901151535 76 229 0.0 2.0 0.00 0.00 0.00 63 1016.2
20260901151022 76 0 0.0 2.0 0.00 0.00 0.00 68 1016.2
20260901150525 75 0 0.0 3.0 0.00 0.00 0.00 70 1016.1
20260901150035 74 0 0.0 3.0 0.00 0.00 0.00 70 1016.1
20260901145521 74 0 0.0 1.0 0.00 0.00 0.00 72 1016.2
20260901145019 74 0 0.0 2.0 0.00 0.00 0.00 72 1016.1
20260901144534 74 0 0.0 2.0 0.00 0.00 0.00 72 1016.0
20260901144025 73 229 0.0 1.0 0.00 0.00 0.00 74 1016.0
20260901143520 73 0 0.0 1.0 0.00 0.00 0.00 76 1016.0
20260901143035 72 0 0.0 2.0 0.00 0.00 0.00 79 1015.9
20260901142516 71 229 0.0 5.0 0.00 0.00 0.00 82 1016.0
20260901142023 70 229 0.0 5.0 0.00 0.00 0.00 79 1015.9
20260901141544 70 0 0.0 2.0 0.00 0.00 0.00 82 1015.9
20260901141026 69 349 0.0 2.0 0.00 0.00 0.00 84 1015.9
20260901140524 68 0 0.0 0.0 0.00 0.00 0.00 88 1015.9
20260901140035 66 0 0.0 0.0 0.00 0.00 0.00 92 1016.0
20260901135524 65 0 0.0 0.0 0.00 0.00 0.00 93 1016.0
20260901135021 65 0 0.0 0.0 0.00 0.00 0.00 95 1016.1
20260901134535 64 0 0.0 0.0 0.00 0.00 0.00 97 1016.1
20260901134021 63 0 0.0 0.0 0.00 0.00 0.00 98 1016.1
20260901133518 63 0 0.0 0.0 0.00 0.00 0.00 100 1016.1
20260901133037 62 0 0.0 0.0 0.00 0.00 0.00 100 1016.2
20260901132520 61 0 0.0 0.0 0.00 0.00 0.00 100 1016.1
20260901132020 60 0 0.0 0.0 0.00 0.00 0.00 100 1016.0
20260901131536 60 0 0.0 0.0 0.00 0.00 0.00 100 1016.1
20260901131021 59 0 0.0 0.0 0.00 0.00 0.00 100 1016.0
20260901130521 59 0 0.0 0.0 0.00 0.00 0.00 100 1015.9
20260901130032 59 0 0.0 0.0 0.00 0.00 0.00 100 1015.8
20260901125521 58 0 0.0 0.0 0.00 0.00 0.00 100 1015.8
20260901125018 58 0 0.0 0.0 0.00 0.00 0.00 99 1015.8
20260901124540 58 0 0.0 0.0 0.00 0.00 0.00 99 1015.7
20260901124016 58 0 0.0 0.0 0.00 0.00 0.00 99 1015.7
20260901123520 58 0 0.0 0.0 0.00 0.00 0.00 99 1015.6
20260901123040 58 0 0.0 0.0 0.00 0.00 0.00 99 1015.6
20260901122524 58 0 0.0 0.0 0.00 0.00 0.00 100 1015.5
20260901122019 58 0 0.0 0.0 0.00 0.00 0.00 100 1015.5
20260901121538 58 0 0.0 0.0 0.00 0.00 0.00 100 1015.6
20260901121024 58 0 0.0 0.0 0.00 0.00 0.00 100 1015.5
20260901120521 57 0 0.0 0.0 0.00 0.00 0.00 100 1015.4
20260901120036 57 0 0.0 0.0 0.00 0.00 0.00 99 1015.4
20260901115523 57 0 0.0 0.0 0.00 0.00 0.00 99 1015.4
20260901115025 56 0 0.0 0.0 0.00 0.00 0.00 99 1015.3
20260901114536 57 0 0.0 0.0 0.00 0.00 0.00 99 1015.2
20260901114019 57 0 0.0 0.0 0.00 0.00 0.00 99 1015.1
20260901113520 57 0 0.0 0.0 0.00 0.00 0.00 99 1015.1
20260901113037 57 0 0.0 0.0 0.00 0.00 0.00 99 1015.1
20260901112521 56 0 0.0 0.0 0.00 0.00 0.00 98 1014.9
20260901112017 57 0 0.0 0.0 0.00 0.00 0.00 98 1014.8
20260901111535 57 0 0.0 0.0 0.00 0.00 0.00 99 1014.7
20260901111018 57 0 0.0 0.0 0.00 0.00 0.00 99 1014.7
20260901110515 57 0 0.0 0.0 0.00 0.00 0.00 98 1014.6
20260901110037 58 0 0.0 0.0 0.00 0.00 0.00 99 1014.7
20260901105520 58 0 0.0 0.0 0.00 0.00 0.00 99 1014.6
20260901105022 58 0 0.0 0.0 0.00 0.00 0.00 99 1014.6
20260901104540 57 0 0.0 0.0 0.00 0.00 0.00 99 1014.6
20260901104020 57 0 0.0 0.0 0.00 0.00 0.00 99 1014.7
20260901103519 57 0 0.0 0.0 0.00 0.00 0.00 98 1014.7
20260901103037 57 0 0.0 0.0 0.00 0.00 0.00 98 1014.7
20260901102525 57 0 0.0 0.0 0.00 0.00 0.00 98 1014.7
20260901102017 58 0 0.0 0.0 0.00 0.00 0.00 99 1014.7
20260901101538 58 0 0.0 0.0 0.00 0.00 0.00 99 1014.8
20260901101018 58 0 0.0 0.0 0.00 0.00 0.00 98 1014.7
20260901100516 58 0 0.0 0.0 0.00 0.00 0.00 99 1014.7
20260901100034 57 0 0.0 0.0 0.00 0.00 0.00 98 1014.7
20260901095521 58 0 0.0 0.0 0.00 0.00 0.00 98 1014.7
20260901095021 58 0 0.0 0.0 0.00 0.00 0.00 98 1014.6
20260901094538 58 0 0.0 0.0 0.00 0.00 0.00 98 1014.7
20260901094020 58 0 0.0 0.0 0.00 0.00 0.00 98 1014.7
20260901093519 58 0 0.0 0.0 0.00 0.00 0.00 98 1014.7
20260901093035 58 0 0.0 0.0 0.00 0.00 0.00 98 1014.7
20260901092518 59 0 0.0 0.0 0.00 0.00 0.00 98 1014.7
20260901092021 59 0 0.0 0.0 0.00 0.00 0.00 98 1014.6
20260901091535 58 0 0.0 0.0 0.00 0.00 0.00 98 1014.6
20260901091017 59 0 0.0 0.0 0.00 0.00 0.00 98 1014.7
20260901090515 59 0 0.0 0.0 0.00 0.00 0.00 98 1014.7
20260901090034 58 0 0.0 0.0 0.00 0.00 0.00 97 1014.6
20260901085519 59 0 0.0 0.0 0.00 0.00 0.00 98 1014.6
20260901085021 59 0 0.0 0.0 0.00 0.00 0.00 98 1014.6
20260901084534 59 0 0.0 0.0 0.00 0.00 0.00 97 1014.6
20260901084023 60 0 0.0 0.0 0.00 0.00 0.00 98 1014.7
20260901083518 60 0 0.0 0.0 0.00 0.00 0.00 99 1014.7
20260901083036 59 0 0.0 0.0 0.00 0.00 0.00 98 1014.7
20260901082520 59 0 0.0 0.0 0.00 0.00 0.00 98 1014.7
20260901082018 59 0 0.0 0.0 0.00 0.00 0.00 98 1014.7
20260901081535 59 0 0.0 0.0 0.00 0.00 0.00 97 1014.8
20260901081020 60 0 0.0 0.0 0.00 0.00 0.00 98 1014.6
20260901080522 59 0 0.0 0.0 0.00 0.00 0.00 97 1014.7
20260901080038 60 0 0.0 0.0 0.00 0.00 0.00 97 1014.8
20260901075520 61 0 0.0 0.0 0.00 0.00 0.00 98 1014.7
20260901075020 61 0 0.0 0.0 0.00 0.00 0.00 98 1014.7
20260901074543 61 0 0.0 0.0 0.00 0.00 0.00 98 1014.7
20260901074019 61 0 0.0 0.0 0.00 0.00 0.00 98 1014.8
20260901073522 61 0 0.0 0.0 0.00 0.00 0.00 98 1014.7
20260901073039 61 0 0.0 0.0 0.00 0.00 0.00 98 1014.8
20260901072520 61 0 0.0 0.0 0.00 0.00 0.00 98 1014.8
20260901072016 62 0 0.0 0.0 0.00 0.00 0.00 98 1014.9
20260901071536 62 0 0.0 0.0 0.00 0.00 0.00 98 1014.8
20260901071022 62 0 0.0 0.0 0.00 0.00 0.00 98 1014.8
20260901070523 62 0 0.0 0.0 0.00 0.00 0.00 98 1014.8
20260901070035 61 0 0.0 0.0 0.00 0.00 0.00 98 1014.9
20260901065522 61 0 0.0 0.0 0.00 0.00 0.00 98 1014.9
20260901065020 62 0 0.0 0.0 0.00 0.00 0.00 98 1015.0
20260901064537 62 0 0.0 0.0 0.00 0.00 0.00 98 1015.0
20260901064020 61 0 0.0 0.0 0.00 0.00 0.00 98 1015.0
20260901063520 61 0 0.0 0.0 0.00 0.00 0.00 98 1015.0
20260901063036 61 0 0.0 0.0 0.00 0.00 0.00 98 1015.0
20260901062518 61 0 0.0 0.0 0.00 0.00 0.00 97 1015.0
20260901062018 61 0 0.0 0.0 0.00 0.00 0.00 97 1015.0
20260901061537 61 0 0.0 0.0 0.00 0.00 0.00 97 1015.0
20260901061020 62 0 0.0 0.0 0.00 0.00 0.00 97 1015.0
20260901060520 62 0 0.0 0.0 0.00 0.00 0.00 97 1015.0
20260901060034 62 0 0.0 0.0 0.00 0.00 0.00 97 1014.8
20260901055522 62 0 0.0 0.0 0.00 0.00 0.00 97 1014.8
20260901055022 62 0 0.0 0.0 0.00 0.00 0.00 97 1014.9
20260901054537 62 0 0.0 0.0 0.00 0.00 0.00 97 1014.8
20260901054021 62 0 0.0 0.0 0.00 0.00 0.00 97 1014.8
20260901053520 62 0 0.0 0.0 0.00 0.00 0.00 97 1014.8
20260901053049 62 0 0.0 0.0 0.00 0.00 0.00 97 1014.8
20260901052518 63 0 0.0 0.0 0.00 0.00 0.00 97 1014.8
20260901052018 63 0 0.0 0.0 0.00 0.00 0.00 96 1014.8
20260901051552 63 0 0.0 0.0 0.00 0.00 0.00 97 1014.8
20260901051021 64 0 0.0 0.0 0.00 0.00 0.00 97 1014.9
20260901050520 64 0 0.0 0.0 0.00 0.00 0.00 97 1014.7
20260901050034 63 0 0.0 0.0 0.00 0.00 0.00 97 1014.7
20260901045519 63 0 0.0 0.0 0.00 0.00 0.00 96 1014.6
20260901045024 63 0 0.0 0.0 0.00 0.00 0.00 96 1014.6
20260901044537 63 0 0.0 0.0 0.00 0.00 0.00 96 1014.6
20260901044018 63 0 0.0 0.0 0.00 0.00 0.00 95 1014.6
20260901043518 63 0 0.0 0.0 0.00 0.00 0.00 94 1014.6
20260901043040 64 0 0.0 0.0 0.00 0.00 0.00 96 1014.5
20260901042519 64 0 0.0 0.0 0.00 0.00 0.00 95 1014.5
20260901042017 64 0 0.0 0.0 0.00 0.00 0.00 94 1014.5
20260901041551 64 0 0.0 0.0 0.00 0.00 0.00 95 1014.6
20260901041021 64 0 0.0 0.0 0.00 0.00 0.00 95 1014.6
20260901040520 64 0 0.0 0.0 0.00 0.00 0.00 95 1014.6
20260901040036 64 0 0.0 0.0 0.00 0.00 0.00 95 1014.6
20260901035520 64 0 0.0 0.0 0.00 0.00 0.00 95 1014.5
20260901035019 64 0 0.0 0.0 0.00 0.00 0.00 95 1014.5
20260901034535 64 0 0.0 0.0 0.00 0.00 0.00 94 1014.5
20260901034018 64 0 0.0 0.0 0.00 0.00 0.00 94 1014.5
20260901033518 64 0 0.0 0.0 0.00 0.00 0.00 94 1014.5
20260901033036 65 0 0.0 0.0 0.00 0.00 0.00 93 1014.4
20260901032519 65 0 0.0 0.0 0.00 0.00 0.00 93 1014.5
20260901032024 65 0 0.0 0.0 0.00 0.00 0.00 92 1014.4
20260901031551 65 0 0.0 0.0 0.00 0.00 0.00 92 1014.3
20260901031016 65 0 0.0 0.0 0.00 0.00 0.00 92 1014.4
20260901030518 65 0 0.0 0.0 0.00 0.00 0.00 91 1014.4
20260901030035 65 0 0.0 0.0 0.00 0.00 0.00 89 1014.5
20260901025519 66 0 0.0 0.0 0.00 0.00 0.00 90 1014.4
20260901025025 66 0 0.0 0.0 0.00 0.00 0.00 90 1014.3
20260901024536 66 0 0.0 0.0 0.00 0.00 0.00 89 1014.3
20260901024018 66 0 0.0 0.0 0.00 0.00 0.00 88 1014.3
20260901023520 67 0 0.0 0.0 0.00 0.00 0.00 88 1014.4
20260901023039 67 0 0.0 0.0 0.00 0.00 0.00 88 1014.3
20260901022520 67 0 0.0 0.0 0.00 0.00 0.00 86 1014.3
20260901022020 67 0 0.0 0.0 0.00 0.00 0.00 86 1014.3
20260901021536 67 0 0.0 0.0 0.00 0.00 0.00 85 1014.3
20260901021021 67 0 0.0 0.0 0.00 0.00 0.00 85 1014.2
20260901020524 67 0 0.0 0.0 0.00 0.00 0.00 83 1014.2
20260901020036 68 0 0.0 0.0 0.00 0.00 0.00 83 1014.1
20260901015520 68 0 0.0 0.0 0.00 0.00 0.00 82 1014.2
20260901015024 68 0 0.0 0.0 0.00 0.00 0.00 81 1014.2
20260901014544 69 0 0.0 0.0 0.00 0.00 0.00 81 1014.2
20260901014016 69 0 0.0 0.0 0.00 0.00 0.00 80 1014.2
20260901013520 69 0 0.0 0.0 0.00 0.00 0.00 80 1014.1
20260901013035 70 0 0.0 0.0 0.00 0.00 0.00 81 1014.1
20260901012519 70 0 0.0 0.0 0.00 0.00 0.00 78 1013.9
20260901012019 70 0 0.0 0.0 0.00 0.00 0.00 76 1013.9
20260901011533 70 0 0.0 0.0 0.00 0.00 0.00 76 1013.8
20260901011023 71 0 0.0 0.0 0.00 0.00 0.00 74 1013.8
20260901010519 71 0 0.0 0.0 0.00 0.00 0.00 74 1013.7
20260901010034 72 0 0.0 0.0 0.00 0.00 0.00 73 1013.6
20260901005518 72 0 0.0 0.0 0.00 0.00 0.00 71 1013.7
20260901005019 73 0 0.0 0.0 0.00 0.00 0.00 71 1013.6
20260901004537 74 0 0.0 0.0 0.00 0.00 0.00 71 1013.5
20260901004021 75 0 0.0 0.0 0.00 0.00 0.00 67 1013.4
20260901003521 76 0 0.0 0.0 0.00 0.00 0.00 72 1013.5
20260901003035 76 0 0.0 0.0 0.00 0.00 0.00 69 1013.4
20260901002518 76 0 0.0 0.0 0.00 0.00 0.00 68 1013.4
20260901002020 77 0 0.0 0.0 0.00 0.00 0.00 68 1013.3
20260901001546 77 0 0.0 0.0 0.00 0.00 0.00 65 1013.3
20260901001021 78 0 0.0 0.0 0.00 0.00 0.00 64 1013.3
20260901000521 79 0 0.0 0.0 0.00 0.00 0.00 60 1013.1
20260901000036 79 0 0.0 0.0 0.00 0.00 0.00 66 1013.1
20260831235521 80 0 0.0 0.0 0.00 0.00 0.00 59 1013.1
20260831235019 80 0 0.0 0.0 0.00 0.00 0.00 55 1013.0
20260831234538 80 0 0.0 0.0 0.00 0.00 0.00 54 1013.1